Location: Newark
(44.6768°N, 22.5302°E)
Time: 08:18:25
(UTC+00:00)

CUBEBUG 2 - Visible Passes

Search period start: 25 June 2022 00:00
Search period end: 05 July 2022 00:00
Orbit: 582 x 695 km, 97.7° (Epoch: 24 June)

Date Brightness Start Highest point End Pass type
(mag) Time Alt. Az. Time Alt. Az. Time Alt. Az.
25 Jun ? 01:34:12 10° NNE 01:38:21 85° E 01:42:32 10° SSW visible
26 Jun ? 00:22:19 10° ENE 00:24:30 14° E 00:26:43 10° ESE visible
26 Jun ? 01:57:18 10° N 02:01:21 53° WNW 02:05:26 10° SSW visible
27 Jun ? 00:44:20 10° NE 00:47:44 24° E 00:51:10 10° SSE visible
28 Jun ? 01:06:55 10° NNE 01:10:53 42° E 01:14:54 10° S visible
29 Jun ? 01:29:46 10° NNE 01:33:57 77° ESE 01:38:11 10° S visible
30 Jun ? 00:18:09 10° ENE 00:20:05 13° E 00:22:00 10° ESE visible
30 Jun ? 01:52:50 10° N 01:56:57 60° WNW 02:01:08 10° SSW visible
01 Jul ? 00:40:00 10° NE 00:43:18 22° E 00:46:39 10° SE visible
02 Jul ? 01:02:30 10° NNE 01:06:27 38° E 01:10:27 10° SSE visible
03 Jul ? 01:25:19 10° NNE 01:29:31 70° ESE 01:33:48 10° S visible
04 Jul ? 00:14:00 10° ENE 00:15:36 12° E 00:17:12 10° ESE visible
04 Jul ? 01:48:20 10° N 01:52:31 66° WNW 01:56:48 10° SSW visible
